Preview of NWS' New Version of Forecast
This preview is not operational and should not be used for support decisions.

Regional Weather Roundup (RWR)

Issued by National Weather Service (NWS)

                            
000
ASUS44 KJAN 171110
RWRMS 

MISSISSIPPI HOURLY WEATHER ROUNDUP
NATIONAL WEATHER SERVICE JACKSON MS
500 AM CST SUN FEB 17 2019

NOTE: "FAIR: INDICATES FEW OR NO CLOUDS BELOW 12,000 FEET WITH NO
SIGNIFICANT WEATHER AND/OR OBSTRUCTIONS TO VISIBILITY.

MSZ001>002-007>008-010>013-018>021-025>028-034>036-171200-
NORTHWEST MISSISSIPPI
  
CITY           SKY/WX    TMP DP  RH WIND       PRES   REMARKS
BATESVILLE     CLOUDY    46  46 100 NW9       29.73R FOG              
CLARKSDALE     FOG       45  45 100 NW5       29.74S VSB 1            
CLEVELAND      CLOUDY    46  46 100 N3        29.71F                  
GREENWOOD      CLOUDY    54  51  90 S6        29.72R                  
GREENVILLE     CLOUDY    47  44  90 N7        29.70F                  
OLIVE BRANCH   FOG       39 N/A N/A NW8       29.75R VSB 3/4 WCI  34  
OXFORD         CLOUDY    45  45 100 S12G18    29.72F FOG              
TUNICA           N/A     41  41 100 N3        29.76S FOG              
WINONA         CLOUDY    48  48 100 CALM      29.73R FOG              
$$

MSZ003>006-009-014>017-022>024-029>033-037>039-171200-
NORTHEAST MISSISSIPPI
  
CITY           SKY/WX    TMP DP  RH WIND       PRES   REMARKS
ABERDEEN       CLOUDY    46  48 100 S7        29.77F                  
COLUMBUS AFB   CLOUDY    49  47  92 S8        29.75F                  
CORINTH        CLOUDY    45  45 100 S10G16    29.73R FOG              
GOLDN TRIANGLE CLOUDY    49  48  97 SE12      29.76F                  
STARKVILLE     CLOUDY    48  46  93 S9        29.77S                  
TUPELO         CLOUDY    47  45  93 S14       29.73F                  
$$

MSZ040-058-171200-
CENTRAL MISSISSIPPI
  
CITY           SKY/WX    TMP DP  RH WIND       PRES   REMARKS
JACKSON INTL   CLOUDY    61  58  90 S14       29.70F                  
JACKSON HAWKNS CLOUDY    58  58 100 SE9       29.69F                  
MADISON        CLOUDY    59  59 100 SE7       29.68F                  
MERIDIAN KEY   CLOUDY   N/A N/A N/A CALM      29.78R                  
MERIDIAN NAS   CLOUDY    52  50  93 SE5       29.78S                  
RAYMOND        PTSUNNY   63  63 100 S8G16     29.67F                  
VICKSBURG VKS  SUNNY     63  63 100 S8        29.67S                  
$$

MSZ059>079-171200-
SOUTH MISSISSIPPI
  
CITY           SKY/WX    TMP DP  RH WIND       PRES   REMARKS
HATTIESBURG    CLOUDY    66  63  90 S7        29.76F                  
LAUREL         CLOUDY    60  60 100 CALM      29.77R                  
MCCOMB         CLOUDY    66  62  87 S10       29.73F                  
NATCHEZ        CLOUDY    65  63  93 S9        29.70R                  
PINE BELT      MOCLDY    64  63  96 S6        29.76F                  
$$

MSZ080>082-171200-
COASTAL MISSISSIPPI
  
CITY           SKY/WX    TMP DP  RH WIND       PRES   REMARKS
BILOXI         FOG       64  64 100 S8        29.78S VSB 1/2          
PASCAGOULA     CLOUDY    70  66  87 S6        29.79R                  
GULFPORT       FOG       64  64 100 S6        29.78S VSB 1/2          
$$

LAZ007>009-015>016-023>026-171200-
NORTHEAST LOUISIANA
  
CITY           SKY/WX    TMP DP  RH WIND       PRES   REMARKS
BASTROP        CLOUDY    45  45  97 NW3       29.73R FOG              
TALLULAH/VBURG MOCLDY    54  52  93 CALM      29.68S                  
VIDALIA        PTSUNNY   63  61  94 S8        29.70R                  
$$